カタログに戻る

STARLINK-35185

運用中通信SSO
NORAD 65608·PAYLOAD·🇺🇸 United States

打ち上げ Sep 13, 2025 から Cape Canaveral Space Force Station

Loading…

次のパス (今後24時間)

TLE

最新Source: CelesTrak SupGP

元期: Sep 14, 2026, 15:34 UTC

1 65608C 25207S   26257.64909722  .02352300  00000+0  12136+0 0  2575
2 65608  97.2841 320.3483 0001462  99.2840  21.7921 15.15239952    11

AllMySatでSTARLINK-35185をリアルタイム追跡

Download on the App Store